x

8419317 - Wells, Me (welm1) Weather Station

6:18 - Tue 16th Sep 2014 All times are EDT. -4 hours from GMT.

  • Wind
    1mph, 3mph gusts
  • Sea Temp 59°f
  • Ar Temp 53°f
  • Sea Pressure 1016.7mb
  • 8419317 - Wells, Me
  • 8419317 - Wells, Me

More Historic Weather Station data

Upgrade to MSW Pro to gain access to the past 30 days of data for over 8000 Wavebouys and Weather Stations around the globe.

Join Pro

Comparision Forecast

View Surf forecast
   
Ter 09/16 6:18 1 3 mph 1016.7mb 59f 53f
6:12 1 5 mph 1016.8mb 59f 53f
6:06 2 3 mph 1016.8mb 59f 53f
6:00 1 2 mph 1016.8mb 59f 53f
5:54  -  1 mph 1016.8mb 59f 53f
5:48 1 2 mph 1016.8mb 59f 53f
5:42 1 5 mph 1017mb 59f 53f
5:36 2 5 mph 1017mb 59f 53f
5:30 3 6 mph 1017.1mb 59f 53f
5:24 5 7 mph 1017.1mb 59f 53f
5:18 5 7 mph 1017.1mb 59f 53f
5:12 6 8 mph 1017.1mb 59f 53f
5:06 6 8 mph 1017.1mb 59f 53f
5:00 3 7 mph 1017mb 59f 53f
4:54 5 7 mph 1016.9mb 59f 53f
4:48 3 6 mph 1016.9mb 59f 53f
4:42 5 6 mph 1016.8mb 59f 53f
4:36 5 6 mph 1016.9mb 59f 53f
4:30 3 6 mph 1016.8mb 59f 53f
4:24 2 5 mph 1016.8mb 59f 53f
4:18 3 6 mph 1016.8mb 59f 53f
4:12 1 3 mph 1017mb 59f 53f
4:06 2 3 mph 1017.1mb 59f 53f
4:00 1 3 mph 1017.2mb 59f 53f
3:54 3 5 mph 1017.3mb 59f 53f
3:48 2 5 mph 1017.2mb 59f 53f
3:42 1 3 mph 1017mb 59f 53f
3:36 3 5 mph 1017mb 59f 54f
3:30 2 5 mph 1017mb 59f 54f
3:24 3 5 mph 1017mb 59f 54f
3:18  -  mph 1017.1mb - -
3:12 1 2 mph 1017.3mb - 53f
3:06 2
mph
1017.4mb - 53f
3:00  -  1 mph 1017.5mb - 53f
2:54  -  mph 1017.5mb - 53f
2:48 2 5 mph 1017.7mb - 52f
2:42  -  mph - - 52f
2:30  -  mph - - 52f
2:24  -  mph - - 52f
2:18  -  mph - - 53f
2:12  -  mph - - 52f
2:06  -  mph - - 52f
2:00  -  mph - - 52f
1:48  -  mph - 61f 53f
1:42  -  mph - 61f 52f
1:36  -  mph - 61f 52f
1:30  -  mph 1018.5mb 61f 52f
1:24 1 3 mph 1018.5mb 61f 52f
1:18  -  mph 1018.6mb 61f 53f
1:12 2 5 mph 1018.6mb 61f 53f
1:06 2 3 mph 1018.7mb 61f 53f
1:00  -  mph 1018.6mb 61f -
12:54 3 5 mph 1018.7mb 61f -
12:48  -  mph 1018.6mb 61f 53f
12:42 3 6 mph 1018.7mb 61f 53f
12:36 5 6 mph 1018.6mb 61f 53f
12:30  -  mph - 61f -
12:24  -  mph - 61f -
12:18  -  mph - - 53f
12:12  -  mph - - 53f
12:06  -  mph - - 53f
12:00  -  mph - - 53f
Seg 09/15 11:54  -  mph 1018.3mb - -
11:48  -  mph 1018.3mb - -
11:42  -  mph 1018.5mb - -
11:36  -  mph 1018.5mb - 54f
11:30  -  mph 1018.4mb - 54f
11:24 3 5 mph 1018.7mb - 54f
11:18  -  mph 1018.7mb 60f 54f
11:12  -  mph 1018.7mb 60f 54f
11:06  -  mph 1018.8mb 60f 55f
11:00 5 6 mph - - 55f
10:54 5 6 mph - - 55f
10:48  -  mph 1018.7mb - -
10:42  -  mph 1018.6mb - -
10:36  -  mph 1018.7mb - -
10:30  -  mph - 60f 56f
10:24  -  mph - 60f 56f
10:18 5 6 mph - 60f 56f
10:12 5 7 mph - 60f 55f
10:06 5 6 mph - 60f 55f
10:00 2 6 mph 1019.1mb 60f 55f
9:54 2 3 mph 1019.2mb 60f 55f
9:48  -  2 mph 1018.9mb 60f 55f
9:42 2 3 mph 1019mb 60f 55f
9:36 1 2 mph 1018.8mb 60f 55f
9:30 2 3 mph 1018.8mb 60f 55f
9:24 2
mph
1018.8mb 60f 55f
9:18 2
mph
1018.7mb 60f 55f
9:12 2 3 mph 1018.9mb 60f 55f
9:06 2 3 mph 1019mb 60f 55f
9:00 1 2 mph 1019.2mb 60f 55f
8:54 2 3 mph 1019.3mb 60f 55f
8:48 2 3 mph 1019.6mb 60f 55f
8:42 2 3 mph 1019.6mb 60f 55f
8:36 2 3 mph 1019.5mb 60f 55f
8:30 2 5 mph 1019.5mb 60f 55f
8:24 3 6 mph 1019.5mb 60f 56f
8:18 2 3 mph 1019.4mb 60f 56f
8:12 2 5 mph 1019.3mb 60f 56f
8:06 3 5 mph 1019.3mb 60f 56f
8:00 3 5 mph 1019.1mb 60f 56f
7:54 3 6 mph 1019.3mb 60f 56f
7:48 3 5 mph 1019.3mb 60f 56f
7:42 5 6 mph 1019.4mb 60f 57f
7:36 2 3 mph 1019mb 60f 57f
7:30 3
mph
1018.8mb 60f 57f
7:24 2 6 mph 1018.9mb 60f 57f
7:18 5 6 mph 1019mb 60f 57f
7:12 3 7 mph 1018.9mb 60f 57f
7:06 6 7 mph 1019mb 60f 58f
7:00 6 7 mph 1019mb 60f 58f
6:54 6
mph
1019.2mb 60f 58f
6:48 5 9 mph 1019.3mb 60f 59f
6:42 8 11 mph 1019.2mb 60f 60f
6:36 10 11 mph 1019.2mb 60f 60f
6:30 10 11 mph 1019.1mb 60f 60f
6:24 10 11 mph 1019mb 60f 60f
6:18 10 11 mph 1019mb 60f 60f
6:12 10 13 mph 1019.1mb 60f 60f
6:06 10 13 mph 1019.2mb 60f 60f
6:00 10 13 mph 1019.4mb 60f 60f
5:54 11 14 mph 1019.4mb 60f 60f
5:48 10 13 mph 1019.3mb 60f 60f
5:42 10 13 mph 1019.3mb 60f 60f
5:36 10 13 mph 1019.3mb 60f 60f
5:30 9 10 mph 1019.6mb 60f 60f
5:24 9 11 mph 1019.5mb 60f 60f
5:18 10 11 mph 1019.5mb 60f 60f
5:12 10 13 mph 1019.5mb 60f 60f
5:06 11 13 mph 1019.5mb 60f 60f
5:00 9 11 mph 1019.4mb 60f 60f
4:54 9 13 mph 1019.4mb 60f 59f
4:48 10 13 mph 1019.3mb 60f 60f
4:42 9 13 mph 1019.4mb 60f 60f
4:36 10 11 mph 1019.5mb 60f 60f
4:30 9 11 mph 1019.5mb 60f 60f
4:24 8 11 mph 1019.4mb 60f 60f
4:18 9 11 mph 1019.6mb 60f 60f
4:12 9 11 mph 1019.7mb 60f 59f
4:06 9 10 mph 1019.7mb 60f 59f
4:00 8 11 mph 1019.9mb 60f 60f
3:54 8 10 mph 1019.8mb 60f 59f
3:48 8 11 mph 1020mb 60f 59f
3:42 9 11 mph 1020mb 60f 59f
3:36 8 9 mph 1020mb 60f 59f
3:30 7 8 mph 1019.9mb 60f 58f
3:24 8 10 mph 1020mb 60f 58f
3:18 8 9 mph 1020.1mb 60f 58f
3:12 8 10 mph 1020mb 60f 58f
3:06 8 10 mph 1020mb 60f 58f
3:00 8 10 mph 1020.1mb 60f 58f
2:54 9 10 mph 1020.1mb 60f 58f
2:48 9 10 mph 1020.1mb 60f 58f
2:42 8 10 mph 1020mb 60f 58f
2:36 8 10 mph 1020.2mb 60f 58f
2:30 9 10 mph 1020.3mb 60f 58f
2:24 8 10 mph 1020.3mb 60f 58f
2:18 8 10 mph 1020.4mb 60f 58f
2:12 8 9 mph 1020.5mb 60f 57f
2:06 9 10 mph 1020.5mb 60f 57f
2:00 8 11 mph 1020.5mb 60f 57f
1:54 9 11 mph 1020.6mb 60f 57f
1:48 8 9 mph 1020.8mb 60f 57f
1:42 8 9 mph 1020.9mb 60f 57f
1:36 7 9 mph 1021mb 60f 57f
1:30 7 10 mph 1020.9mb 59f 57f
1:24 8 10 mph 1020.9mb 59f 57f
1:18 8 10 mph 1021mb 59f 57f
1:12 7 10 mph 1021mb 59f 57f
1:06 8 11 mph 1021mb 59f 56f
1:00 9 11 mph 1021.1mb 59f 56f
12:54 9 10 mph 1021.2mb 59f 56f
12:48 8 9 mph 1021.3mb 59f 56f
12:42 8 10 mph 1021.4mb 59f 56f
12:36 8 11 mph 1021.4mb 59f 56f
12:30 8 11 mph 1021.5mb 59f 56f
12:24 9 11 mph 1021.5mb 59f 56f
12:18 8 10 mph 1021.5mb 58f 56f
12:12 8 10 mph 1021.5mb 58f 56f
12:06 8 11 mph 1021.6mb 58f 56f
12:00 8 10 mph 1021.7mb 58f 56f
11:54 7 9 mph 1021.7mb 58f 56f
11:48 7 9 mph 1021.9mb 58f 56f
11:42 7 9 mph 1021.9mb 58f 56f
11:36 6 9 mph 1021.9mb 58f 56f
11:30 6 9 mph 1022.1mb 58f 56f
11:24 8 9 mph 1022.1mb 59f 55f
11:18 7 9 mph 1022.3mb 59f 56f
11:12 6 8 mph 1022.3mb 59f 56f
11:06 6 10 mph 1022.3mb 59f 56f
11:00 7 9 mph 1022.4mb 59f 55f
10:54 6 8 mph 1022.4mb 59f 56f
10:48 6 9 mph 1022.5mb 59f 55f
10:42 6 8 mph 1022.5mb 59f 55f
10:36 7 9 mph 1022.6mb 59f 55f
10:30 6 8 mph 1022.7mb 59f 55f
10:24 6 8 mph 1022.6mb 59f 54f
10:18 6 9 mph 1022.7mb 59f 54f
10:12 7 8 mph 1022.7mb 59f 54f
10:06 6 7 mph 1022.7mb 59f 54f
10:00 5 7 mph 1022.8mb 59f 54f
9:54 6
mph
1022.7mb 59f 54f
9:48 3
mph
1022.8mb 59f 55f
9:42  -  2 mph 1022.8mb 59f 57f
9:36  -  1 mph 1022.8mb 59f 56f
9:30  -  2 mph 1022.8mb 59f 56f
9:24 2
mph
1022.8mb 59f 54f
9:18 3 5 mph 1023mb 59f 53f
9:12  -  3 mph 1023mb 59f 54f
9:06 3 5 mph 1023mb 59f 53f
9:00 2 5 mph 1023mb 59f 53f
8:54 5 6 mph 1023mb 59f 52f
8:48 3 7 mph 1023mb 59f 52f
8:42 6 8 mph 1023mb 59f 51f
8:36 7 9 mph 1023.1mb 59f 51f
8:30 6 8 mph 1023.1mb 59f 51f
8:24 6 8 mph 1023.2mb 59f 51f
8:18 5 7 mph 1023.2mb 59f 51f
8:12 6 7 mph 1023.2mb 59f 51f
8:06 6 7 mph 1023.1mb 59f 51f
8:00 3 5 mph 1023.1mb 59f 51f
7:54 2 3 mph 1023.2mb 59f 51f
7:48 1 3 mph 1023.1mb 59f 52f
7:42 2 3 mph 1023.1mb 59f 51f
7:36 2 3 mph 1023.2mb 59f 50f
7:30 2 3 mph 1023.1mb 59f 50f
7:24 3 5 mph 1023.2mb 59f 49f
7:18 5 6 mph 1023.2mb 59f 49f
7:12 3 5 mph 1023.3mb 59f 49f
7:06 3 5 mph 1023.3mb 59f 48f
7:00 5 6 mph 1023.3mb 59f 48f
6:54 5 6 mph 1023.3mb 59f 47f
6:48 5 6 mph 1023.3mb 59f 47f
6:42 5 6 mph 1023.2mb 59f 47f
6:36 5 6 mph 1023.2mb 59f 47f
6:30 5 6 mph 1023.1mb 59f 47f
6:24 5 6 mph 1023.1mb 59f 47f
6:18 5 6 mph 1023.1mb 59f 47f
6:12 6 7 mph 1023.2mb 59f 48f
6:06 6 7 mph 1023.2mb 59f 48f
6:00 6 7 mph 1023.2mb 59f 48f
5:54 5 7 mph 1023.2mb 59f 48f
5:48 6 7 mph 1023.2mb 59f 47f
5:42 6 7 mph 1023.2mb 59f 47f
5:36 6 7 mph 1023.2mb 59f 47f
5:30 7 9 mph 1023.3mb 59f 47f
5:24 7 9 mph 1023.2mb 59f 47f
5:18 8 10 mph 1023.3mb 59f 47f
5:12 8 9 mph 1023.3mb 59f 47f
5:06 8 9 mph 1023.2mb 59f 47f
5:00 8 10 mph 1023.1mb 59f 47f
4:54 9 11 mph 1023mb 59f 47f
4:48 6 8 mph 1023mb 59f 47f
4:42 5 6 mph 1022.9mb 59f 48f
4:36 5 6 mph 1022.9mb 59f 48f
4:30 5 7 mph 1022.8mb 59f 48f
4:24 6 7 mph 1022.7mb 59f 48f
4:18 5 7 mph 1022.7mb 59f 48f
4:12 6 7 mph 1022.7mb 59f 48f
4:06 6 7 mph 1022.7mb 59f 48f
4:00 6 7 mph 1022.7mb 59f 48f
3:54 6 7 mph 1022.6mb 59f 48f
3:48 6 7 mph 1022.5mb 59f 48f
3:42 6 7 mph 1022.5mb 59f 48f
3:36 6 7 mph 1022.4mb 59f 48f
3:30 5 8 mph 1022.4mb 59f 48f
3:24 5 7 mph 1022.4mb 59f 48f
3:18 6 7 mph 1022.3mb 59f 48f
3:12 6 7 mph 1022.3mb 59f 48f
3:06 6 7 mph 1022.4mb 59f 48f
3:00 5 7 mph 1022.5mb 59f 49f
2:54 6 8 mph 1022.5mb 60f 49f
2:48 5 8 mph 1022.6mb 60f 48f
2:42 7 8 mph 1022.6mb 60f 49f
2:36 6 8 mph 1022.6mb 60f 49f
2:30 7 9 mph 1022.7mb 60f 49f
2:24 7 8 mph 1022.7mb 60f 49f
2:18 7 9 mph 1022.7mb 60f 49f
2:12 7 9 mph 1022.7mb 60f 49f
2:06 8 9 mph 1022.6mb 60f 49f
2:00 8 9 mph 1022.6mb 60f 49f
1:54 6 8 mph 1022.6mb 60f 49f
1:48 6 7 mph 1022.7mb 60f 49f
1:42 6 8 mph 1022.6mb 60f 49f
1:36 6 9 mph 1022.6mb 60f 49f
1:30 8 9 mph 1022.5mb 60f 49f
1:24 8 9 mph 1022.5mb 60f 49f
1:18 7 9 mph 1022.5mb 60f 49f
1:12 6 9 mph 1022.5mb 61f 49f
1:06 6 9 mph 1022.6mb 61f 49f
1:00 6 9 mph 1022.5mb 61f 49f
12:54 6 9 mph 1022.5mb 61f 49f
12:48 6 7 mph 1022.6mb 61f 50f
12:42 6 8 mph 1022.6mb 61f 50f
12:36 6 8 mph 1022.6mb 61f 50f
12:30 7 8 mph 1022.6mb 61f 50f
12:24 7 8 mph 1022.6mb 61f 50f
12:18 6 7 mph 1022.7mb 61f 50f
12:12 5 8 mph 1022.7mb 61f 50f
12:06 6 9 mph 1022.7mb 61f 50f
12:00 6 9 mph 1022.6mb 61f 51f
Dom 09/14 11:54 7 9 mph 1022.6mb 61f 51f
11:48 7 8 mph 1022.5mb 61f 51f
11:42 6 8 mph 1022.6mb 61f 51f
11:36 6 8 mph 1022.6mb 61f 51f
11:30 6 9 mph 1022.6mb 61f 51f
11:24 5 6 mph 1022.7mb 61f 51f
11:18 6 8 mph 1022.6mb 61f 51f
11:12 7 9 mph 1022.6mb 61f 51f
11:06 7 10 mph 1022.6mb 61f 51f
11:00 10 13 mph 1022.5mb 61f 51f
10:54 10 14 mph 1022.4mb 61f 52f
10:48 8 14 mph 1022.4mb 61f 52f
10:42 10 14 mph 1022.3mb 61f 52f
10:36 9 13 mph 1022.3mb 61f 52f
10:30 7 11 mph 1022.3mb 61f 52f
10:24 7 10 mph 1022.3mb 61f 52f
10:18 8 11 mph 1022.4mb 61f 52f
10:12 10 14 mph 1022.3mb 60f 53f
10:06 11 14 mph 1022.3mb 60f 53f
10:00 10 13 mph 1022.3mb 60f 53f
9:54 8 13 mph 1022.4mb 60f 53f
9:48 11 15 mph 1022.4mb 60f 54f
9:42 11 16 mph 1022.3mb 60f 54f
9:36 11 14 mph 1022.3mb 60f 54f
9:30 11 15 mph 1022.3mb 60f 54f
9:24 10 15 mph 1022.3mb 60f 54f
9:18 9 11 mph 1022.3mb 60f 55f
9:12 9 13 mph 1022.3mb 60f 55f
9:06 11 13 mph 1022.3mb 60f 55f
9:00 9 11 mph 1022.2mb 60f 55f
8:54 6 8 mph 1022.3mb 61f 54f
8:48 7 8 mph 1022.2mb 60f 54f
8:42 6 7 mph 1022.1mb 60f 54f
8:36 7 9 mph 1022.1mb 60f 54f
8:30 8
mph
1022.1mb 60f 54f
8:24 5
mph
1022mb 60f 55f
8:18 2 3 mph 1021.9mb 60f 56f
8:06 2 3 mph 1021.9mb 60f 58f
8:00 2 5 mph 1021.8mb 60f 59f
7:54 5 6 mph 1021.7mb 60f 59f
7:48 5 6 mph 1021.7mb 60f 59f
7:42 5 6 mph 1021.7mb 60f 59f
7:36 3 7 mph 1021.7mb 60f 59f
7:30 6 8 mph 1021.7mb 60f 59f
7:24 7 9 mph 1021.8mb 60f 59f
7:18 5 7 mph 1021.7mb 61f 59f
7:12 6 7 mph 1021.6mb 61f 59f
7:06 5 6 mph 1021.5mb 61f 59f
7:00 5 8 mph 1021.6mb 60f 59f
6:54 5 7 mph 1021.5mb 60f 59f
6:48 6 7 mph 1021.5mb 60f 59f
6:42 5 7 mph 1021.4mb 60f 59f
6:36 5 7 mph 1021.3mb 60f 59f
6:30 5 6 mph 1021.3mb 60f 60f
6:24 5 6 mph 1021.1mb 60f 60f
6:18 3 7 mph 1021.1mb 60f 60f
6:12 5 8 mph 1021.2mb 60f 60f
6:06 7 9 mph 1021.3mb 60f 60f
6:00 6 7 mph 1021.2mb 60f 61f
5:54 6 7 mph 1021.2mb 60f 61f
5:48 6 7 mph 1021.2mb 60f 60f
5:42 5 7 mph 1021.2mb 60f 60f
5:36 6 7 mph 1021.2mb 60f 61f
5:30 6 8 mph 1021.1mb 60f 61f
5:24 6 8 mph 1021.1mb 60f 61f
5:18 6 8 mph 1021mb 60f 61f
5:12 7 8 mph 1021.1mb 60f 61f
5:06 6 9 mph 1021.1mb 60f 61f
5:00 7 10 mph 1021.1mb 60f 60f
4:54 10 13 mph 1021mb 60f 60f
4:48 10 13 mph 1021.1mb 60f 60f
4:42 10 11 mph 1021.1mb 60f 60f
4:36 7 9 mph 1021.1mb 60f 61f
4:30 7 9 mph 1021.1mb 60f 61f
4:24 8 11 mph 1021mb 60f 61f
4:18 10 13 mph 1021mb 60f 60f
4:12 10 14 mph 1021mb 60f 60f
4:06 13 14 mph 1020.9mb 60f 60f
4:00 11 16 mph 1020.8mb 60f 60f
3:54 13 15 mph 1020.8mb 60f 60f
3:48 11 13 mph 1020.7mb 60f 60f
3:42 10 13 mph 1020.7mb 60f 60f
3:36 10 13 mph 1020.6mb 60f 60f
3:30 8 10 mph 1020.5mb 60f 60f
3:24 9 10 mph 1020.5mb 60f 60f
3:18 8 11 mph 1020.5mb 60f 60f
3:12 10 11 mph 1020.5mb 60f 60f
3:06 9 14 mph 1020.4mb 60f 61f
3:00 7 11 mph 1020.4mb 60f 61f
2:54 8 10 mph 1020.4mb 60f 62f
2:48 5 8 mph 1020.3mb 60f 62f
2:42 5 7 mph 1020.4mb 60f 62f
2:36 6 10 mph 1020.4mb 60f 62f
2:30 6 9 mph 1020.3mb 60f 62f
2:24 6 13 mph 1020.4mb 60f 62f
2:18 6 13 mph 1020.4mb 60f 62f
2:12 6 8 mph 1020.5mb 59f 62f
2:06 3 9 mph 1020.6mb 59f 62f
2:00 2 7 mph 1020.6mb 59f 62f
1:54 3 9 mph 1020.7mb 59f 61f
1:48 5 7 mph 1020.8mb 59f 61f
1:42 7 9 mph 1020.9mb 59f 61f
1:36 2 6 mph 1021mb 59f 62f
1:30 7 9 mph 1021.1mb 59f 61f
1:24 3 10 mph 1021.1mb 59f 61f
1:18 5 8 mph 1021.2mb 59f 61f
1:12 2 7 mph 1021.2mb 59f 61f
1:06 3 8 mph 1021.2mb 59f 61f
1:00 6 9 mph 1021.3mb 59f 60f
12:54 7 13 mph 1021.2mb 59f 59f
12:48 8 10 mph 1021.2mb 59f 59f
12:42 8 10 mph 1021.4mb 59f 58f
12:36 6 11 mph 1021.4mb 58f 59f
12:30 8 15 mph 1021.4mb 58f 59f
12:24 8 11 mph 1021.4mb 58f 59f
12:18 1 9 mph 1021.4mb 58f 59f
12:12 2 6 mph 1021.5mb 58f 58f
12:06 7 10 mph 1021.4mb 58f 57f
12:00 9 13 mph 1021.5mb 58f 57f
11:54 7 10 mph 1021.6mb 58f 57f
11:48 6 13 mph 1021.6mb 58f 57f
11:42 9 14 mph 1021.7mb 58f 56f
11:36 8 10 mph 1021.7mb 58f 56f
11:30 3 9 mph 1021.7mb 57f 56f
11:24 7 14 mph 1021.6mb 57f 56f
11:18 8 11 mph 1021.6mb 57f 56f
11:12 8 11 mph 1021.7mb 58f 55f
11:06 9 13 mph 1021.7mb 58f 55f
11:00 9 16 mph 1021.8mb 58f 55f
10:54 7 11 mph 1021.9mb 58f 56f
10:48 8 13 mph 1022mb 58f 55f
10:42 9 14 mph 1021.9mb 58f 55f
10:36 9 14 mph 1022mb 58f 55f
10:30 9 13 mph 1022mb 58f 54f
10:24 8 13 mph 1022.1mb 58f 55f
10:18 8 13 mph 1022.2mb 58f 55f
10:12 7 15 mph 1022.3mb 58f 54f
10:06 9 14 mph 1022.3mb 58f 54f
10:00 10 14 mph 1022.3mb 58f 54f
9:54 10 16 mph 1022.2mb 58f 53f
9:48 13 16 mph 1022.2mb 58f 54f
9:42 11 14 mph 1022.2mb 58f 53f
9:36 6 11 mph 1022.2mb 58f 54f
9:30 8 11 mph 1022.1mb 58f 53f
9:24 9 13 mph 1022.1mb 58f 53f
9:18 9 11 mph 1022.1mb 58f 53f
9:12 9 13 mph 1022.1mb 58f 53f
9:06 9 14 mph 1022mb 58f 53f
9:00 8 14 mph 1022.1mb 58f 53f
8:54 8 11 mph 1022.1mb 58f 52f
8:48 6 8 mph 1022mb 58f 52f
8:42 6 10 mph 1021.9mb 58f 52f
8:36 7 10 mph 1022mb 58f 52f
8:30 6 9 mph 1022mb 58f 52f
8:24 3 8 mph 1022mb 58f 52f
8:18 6 8 mph 1022mb 58f 52f
8:12 6 13 mph 1021.9mb 58f 52f
8:06 3 8 mph 1021.8mb 58f 52f
8:00 6 8 mph 1021.8mb 58f 52f
7:54 6 8 mph 1021.7mb 58f 52f
7:48 3 7 mph 1021.7mb 58f 52f
7:42 5 8 mph 1021.7mb 58f 52f
7:36 6 9 mph 1021.5mb 58f 52f
7:30 5 7 mph 1021.6mb 58f 52f
7:24 3 6 mph 1021.5mb 59f 52f
7:18 2 5 mph 1021.4mb 59f 51f
7:12 5 6 mph 1021.3mb 59f 51f
7:06 6 8 mph 1021.2mb 59f 51f
7:00 6 8 mph 1021.1mb 59f 50f
6:54 6 8 mph 1021mb 58f 50f
6:48 5 6 mph 1020.9mb 59f 50f
6:42 5 6 mph 1020.9mb 59f 50f
6:36 3 6 mph 1020.8mb 59f 50f
6:30 3 6 mph 1020.7mb 58f 50f
6:24 5 6 mph 1020.5mb 58f 50f
6:18 5 7 mph 1020.4mb 58f 50f
6:12 5 7 mph 1020.3mb 58f 50f
6:06 6 7 mph 1020.3mb 58f 50f
6:00 5 7 mph 1020.1mb 58f 51f
5:54 5 6 mph 1020.1mb 58f 51f
5:48 5 6 mph 1020mb 58f 51f
5:42 3 5 mph 1020mb 58f 51f
5:36 3 5 mph 1019.9mb 58f 51f
5:30 3 7 mph 1019.9mb 59f 51f
5:24 5 6 mph 1019.8mb 59f 51f
5:18 7 8 mph 1019.7mb 59f 52f
5:12 7 8 mph 1019.5mb 59f 51f
5:06 7
mph
1019.5mb 59f 51f
5:00 7 8 mph 1019.4mb 59f 52f
4:54 7 8 mph 1019.3mb 59f 52f
4:48 6 8 mph 1019.2mb 59f 52f
4:42 5 8 mph 1019.1mb 59f 53f
4:36 6 7 mph 1019mb 59f 53f
4:30 6 8 mph 1019mb 59f 53f
4:24 6 8 mph 1018.8mb 59f 53f
4:18 5 6 mph 1018.8mb 59f 53f
4:12 6 8 mph 1018.8mb 59f 53f
4:06 3 6 mph 1018.7mb 59f 53f
4:00 6 7 mph 1018.6mb 59f 53f
3:54 5 7 mph 1018.6mb 59f 53f
3:48 3 6 mph 1018.5mb 59f 53f
3:42 3 7 mph 1018.5mb 59f 53f
3:36 5 7 mph 1018.4mb 59f 53f
3:30 3 5 mph 1018.4mb 59f 53f
3:24 2 3 mph 1018.3mb 59f 53f
3:18 2 3 mph 1018.3mb 59f 54f
3:12 2 5 mph 1018.3mb 59f 54f
3:06 3 6 mph 1018.3mb 59f 54f
3:00 3 7 mph 1018.3mb 59f 54f
2:54 6 7 mph 1018.3mb 59f 54f
2:48 5 7 mph 1018.3mb 59f 54f
2:42 5 7 mph 1018.4mb 59f 54f
2:24 6 7 mph 1018.2mb 59f 55f
2:18 6 8 mph 1018.2mb 59f 55f
2:00 6 9 mph 1018.3mb 59f 55f
1:54 6 7 mph 1018.3mb 59f 55f
1:48 5 7 mph 1018.4mb 59f 55f
1:42 3 8 mph 1018.3mb 59f 55f
1:36 5 9 mph 1018.4mb 59f 55f
1:30 5 8 mph 1018.3mb 59f 55f
1:24 7 10 mph 1018.3mb 59f 55f
1:18 7 11 mph 1018.3mb 59f 55f
1:12 6 9 mph 1018.3mb 59f 55f
1:06 3 9 mph 1018.3mb 59f 55f
1:00 5 8 mph 1018.3mb 59f 55f
12:54 7 8 mph 1018.4mb 59f 55f
12:48 6 7 mph 1018.3mb 59f 55f
12:42 3 6 mph 1018.3mb 59f 55f
12:36 5 6 mph 1018.4mb 59f 55f
12:30 2 5 mph - 59f 55f
12:24 2 3 mph - 59f 55f
12:18 3 5 mph - 59f 55f
12:12 3 5 mph 1018.5mb 59f 55f
12:06 2 5 mph 1018.5mb 59f 55f
12:00 2 6 mph 1018.6mb 59f 55f
Sáb 09/13 11:42 5 8 mph 1018.9mb 59f 56f
11:36 6 8 mph 1018.9mb 59f 56f
11:30 6 11 mph 1018.9mb 59f 56f
11:24 7 11 mph 1019mb 59f 56f
11:18 8 10 mph 1019mb 59f 56f
11:12 7 9 mph 1019.1mb 59f 56f
11:06 6 8 mph 1019.1mb 59f 56f
11:00 5 7 mph 1019mb 59f 56f
10:36 6 8 mph 1019mb 59f 56f
10:30 5 6 mph 1018.9mb 59f 56f
10:12 6 7 mph 1019.1mb 59f 56f
9:48 7 8 mph 1019.2mb 59f 56f
9:42 6 7 mph 1019.2mb 59f 56f
9:36 6 8 mph 1019.3mb 59f 56f
9:30 8
mph
1019.2mb 59f 56f
9:24 7 8 mph 1019.3mb 59f 57f
9:18 6 7 mph 1019.2mb 59f 57f
9:12 6 7 mph 1019.3mb 59f 57f
9:06 6 7 mph 1019.4mb 59f 57f
9:00 6
mph
1019.3mb 59f 57f
8:54 5
mph
1019.3mb 59f 57f
8:48 3 6 mph 1019.4mb 59f 58f
8:42 5 7 mph 1019.4mb 59f 58f
8:36 6 9 mph 1019.3mb 59f 58f
8:30 9 11 mph 1019.3mb 59f 58f
8:24 9 11 mph 1019.3mb 59f 58f
8:18 9 14 mph 1019.4mb 59f 58f
8:12 11 15 mph 1019.3mb 59f 58f
8:06 11 14 mph 1019.2mb 59f 58f
8:00 8 14 mph 1019.5mb 59f 57f
7:54 10 14 mph 1019.4mb 59f 57f
7:48 8 11 mph 1019.6mb 59f 56f
7:42 9 11 mph 1019.4mb 59f 56f
7:36 6 9 mph 1020mb 59f 56f
7:30 6 8 mph 1020.4mb 59f 56f
7:24 6 7 mph 1020.4mb 59f 55f
7:18 5 7 mph 1020.5mb 59f 55f
7:12 6 8 mph 1020.3mb 59f 55f
7:06 6 8 mph 1020.5mb 59f 55f
7:00 6 8 mph 1020.5mb 59f 55f
6:54 6 7 mph 1020.7mb 59f 55f
6:48 5 10 mph 1021.1mb 59f 56f
6:42 10 13 mph 1021mb 59f 56f
6:36 9 16 mph 1020.6mb 59f 56f
6:30 9 14 mph 1020.6mb 59f 56f
6:24 11 14 mph 1020.6mb 59f 56f
6:18 11 14 mph 1020.6mb 59f 56f
6:12 11 15 mph 1020.8mb 59f 55f
6:06 8 10 mph 1021.1mb 59f 55f
6:00 6 8 mph 1021.6mb 59f 55f
5:54 6 8 mph 1021.8mb 59f 55f
5:48 6 7 mph 1022.3mb 59f 55f
5:42 7 9 mph 1022.5mb 59f 55f
5:36 6 8 mph 1022.6mb 59f 56f
5:30 8 10 mph 1022.5mb 59f 56f
5:24 7 9 mph 1022.5mb 59f 56f
5:18 7 9 mph 1022.7mb 59f 56f
5:12 7 13 mph 1022.4mb 59f 56f
5:06 8 11 mph 1022.2mb 59f 56f
5:00 9 13 mph 1022.2mb 59f 56f
4:54 10 13 mph 1022mb 59f 56f
4:48 9 11 mph 1022.2mb 59f 56f
4:42 9 13 mph 1022.1mb 59f 56f
4:36 9 13 mph 1022.4mb 59f 56f
4:30 7 10 mph 1022.3mb 59f 57f
4:24 8 13 mph 1022.4mb 59f 57f
4:18 9 11 mph 1022.3mb 59f 56f
4:12 10 11 mph 1022.3mb 59f 56f
4:06 8 10 mph 1022.2mb 59f 57f
4:00 9 14 mph 1022.1mb 59f 57f
3:54 9 15 mph 1022mb 59f 57f
3:48 11 14 mph 1021.8mb 59f 57f
3:42 8 10 mph 1021.9mb 59f 57f
3:36 8 10 mph 1021.9mb 59f 57f
3:30 9 13 mph 1022.1mb 59f 57f
3:24 13 15 mph 1021.9mb 59f 57f
3:18 10 15 mph 1021.8mb 59f 57f
3:12 10 13 mph 1021.9mb 59f 57f
3:06 8 13 mph 1022mb 59f 57f
3:00 13 15 mph 1022mb 59f 57f
2:54 10 14 mph 1022.1mb 59f 57f
2:48 10 14 mph 1022.3mb 59f 57f
2:42 8 11 mph 1022.6mb 59f 57f
2:36 8 11 mph 1022.8mb 59f 57f
2:30 9 13 mph 1022.7mb 59f 57f
2:24 10 15 mph 1022.8mb 59f 57f
2:18 8 13 mph 1022.9mb 59f 57f
2:12 9 14 mph 1022.9mb 59f 57f
2:06 8 13 mph 1023mb 59f 57f
2:00 10 13 mph 1023.1mb 59f 57f
1:54 10 13 mph 1023.3mb 59f 57f
1:48 11 15 mph 1023.3mb 59f 57f
1:42 13 15 mph 1023.4mb 59f 57f
1:36 11 15 mph 1023.8mb 59f 56f
1:30 10 15 mph 1023.9mb 59f 57f
1:24 11 15 mph 1024mb 59f 57f
1:18 11 15 mph 1024mb 59f 57f
1:12 13 17 mph 1024mb 59f 57f
1:06 11 16 mph 1024mb 59f 57f
1:00 14 20 mph 1023.9mb 59f 56f
12:54 14 20 mph 1023.6mb 59f 56f
12:48 15 20 mph 1023.7mb 59f 57f
12:42 14 18 mph 1023.7mb 59f 56f
12:36 16 17 mph 1023.9mb 59f 56f
12:30 14 17 mph 1024.1mb 59f 57f
12:24 14 17 mph 1024mb 59f 57f
12:18 10 16 mph 1024.3mb 58f 57f
12:12 13 15 mph 1024.4mb 58f 57f
12:06 13 16 mph 1024.4mb 58f 57f
12:00 10 14 mph 1024.5mb 58f 57f
11:54 11 15 mph 1024.9mb 58f 57f
11:48 13 16 mph 1024.8mb 58f 56f
11:42 13 16 mph 1024.6mb 58f 56f
11:36 10 15 mph 1024.7mb 58f 56f
11:30 10 17 mph 1024.6mb 58f 57f
11:24 10 16 mph 1024.7mb 58f 56f
11:18 13 16 mph 1024.6mb 58f 56f
11:12 13 18 mph 1024.7mb 58f 56f
11:06 11 16 mph 1024.8mb 58f 56f
11:00 13 16 mph 1024.7mb 58f 56f
10:54 14 16 mph 1024.8mb 57f 56f
10:48 10 16 mph 1024.9mb 57f 56f
10:42 11 15 mph 1024.9mb 57f 56f
10:36 13 17 mph 1024.9mb 57f 56f
10:30 11 16 mph 1025mb 57f 56f
10:24 9 14 mph 1025mb 57f 56f
10:18 8 15 mph 1025.1mb 57f 56f
10:12 10 13 mph 1025.2mb 57f 56f
10:06 8 13 mph 1025.3mb 57f 56f
10:00 8 11 mph 1025.3mb 57f 55f
9:54 6 10 mph 1025.5mb 57f 56f
9:48 9 11 mph 1025.4mb 57f 55f
9:42 7 10 mph 1025.4mb 58f 55f
9:36 9 10 mph 1025.4mb 58f 54f
9:30 7 9 mph 1025.6mb 58f 54f
9:24 8 10 mph 1025.6mb 58f 54f
9:18 10 13 mph 1025.6mb 58f 54f
9:12 7 11 mph 1025.7mb 58f 54f
9:06 10 11 mph 1025.8mb 58f 53f
9:00 8 11 mph 1025.9mb 58f 53f
8:54 7 10 mph 1025.9mb 58f 53f
8:48 8 9 mph 1025.9mb 58f 53f
8:42 7 10 mph 1025.8mb 58f 52f
8:36 7 10 mph 1025.7mb 58f 52f
8:30 8 11 mph 1025.6mb 58f 51f
8:24 7 11 mph 1025.5mb 58f 51f
8:18 8 11 mph 1025.6mb 58f 51f
8:12 8 13 mph 1025.7mb 58f 50f
8:06 8 10 mph 1025.7mb 58f 50f
8:00 10 14 mph 1025.6mb 58f 50f
7:54 8 10 mph 1025.5mb 58f 49f
7:48 8 10 mph 1025.5mb 58f 49f
7:42 7 10 mph 1025.6mb 58f 49f
7:36 8 10 mph 1025.6mb 58f 48f
7:30 7 11 mph 1025.7mb 58f 48f
7:24 8 11 mph 1025.6mb 58f 48f
7:18 8 10 mph 1025.6mb 58f 48f
7:12 7 10 mph 1025.6mb 58f 48f
7:06 9 11 mph 1025.7mb 58f 47f
7:00 8 10 mph 1025.7mb 58f 47f
6:54 7 9 mph 1025.7mb 58f 47f
6:48 8 11 mph 1025.6mb 58f 47f
6:42 8 10 mph 1025.5mb 58f 47f
6:36 9 11 mph 1025.5mb 58f 47f
6:30 8 10 mph 1025.5mb 58f 47f
6:24 8 10 mph 1025.3mb 58f 47f
6:18 8 10 mph 1025.3mb 58f 47f
6:12 8 11 mph 1025.2mb 58f 47f
6:06 8 11 mph 1025.1mb 58f 47f
6:00 9 10 mph 1025mb 58f 47f
5:54 8 10 mph 1025mb 58f 47f
5:48 9 10 mph 1024.9mb 58f 47f
5:42 8 9 mph 1024.8mb 58f 47f
5:36 7 8 mph 1024.8mb 58f 47f
5:30 7 9 mph 1024.9mb 58f 47f
5:24 7 9 mph 1024.8mb 58f 47f
5:18 7 8 mph 1024.8mb 58f 47f
5:12 7 9 mph 1024.7mb 58f 47f
5:06 6 8 mph 1024.7mb 58f 47f
5:00 6 7 mph 1024.7mb 58f 47f
4:54 6 7 mph 1024.8mb 58f 47f
4:48 6 7 mph 1024.8mb 58f 47f
4:42 6
mph
1024.7mb 58f 47f
4:36 5 6 mph 1024.7mb 58f 47f
4:30 5 6 mph 1024.6mb 58f 48f
4:24 3 6 mph 1024.7mb 58f 48f
4:18 5 6 mph 1024.7mb 58f 48f
4:12 3 6 mph 1024.7mb 57f 48f
4:06 5 7 mph 1024.7mb 57f 48f
4:00 5 7 mph 1024.6mb 57f 48f
3:54 5 7 mph 1024.5mb 57f 48f
3:48 6 7 mph 1024.5mb 57f 48f
3:42 7 8 mph 1024.5mb 57f 48f
3:36 6 8 mph 1024.3mb 57f 48f
3:30 6 8 mph 1024.3mb 57f 48f
3:24 6 9 mph 1024.2mb 57f 48f
3:18 7 9 mph 1024.2mb 57f 49f
3:12 8 9 mph 1024.3mb 57f 49f
3:06 8 9 mph 1024.4mb 57f 49f
3:00 7 9 mph 1024.3mb 57f 49f
2:54 7 11 mph 1024.3mb 57f 49f
2:48 8 10 mph 1024.3mb 57f 49f
2:42 9 11 mph 1024.4mb 57f 49f
2:36 8 10 mph 1024.4mb 57f 49f
2:30 8 9 mph 1024.5mb 57f 49f
2:24 6 8 mph 1024.4mb 57f 49f
2:18 7 8 mph 1024.5mb 57f 49f
2:12 6 8 mph 1024.5mb 58f 49f
2:06 6 8 mph 1024.5mb 58f 49f
2:00 6 8 mph 1024.5mb 58f 49f
1:54 7 9 mph 1024.4mb 58f 49f
1:48 6 9 mph 1024.5mb 58f 49f
1:42 7 8 mph 1024.4mb 58f 49f
1:36 6 8 mph 1024.5mb 58f 50f
1:30 6 7 mph 1024.6mb 58f 50f
1:24 5 7 mph 1024.6mb 58f 50f
1:18 6 7 mph 1024.5mb 58f 50f
1:12 6 8 mph 1024.5mb 58f 50f
1:06 3 7 mph 1024.5mb 58f 50f
1:00 5 7 mph 1024.5mb 58f 50f
12:54 7 8 mph 1024.5mb 59f 51f
12:48 7 8 mph 1024.5mb 59f 50f
12:42 6 7 mph 1024.3mb 59f 50f
12:36 6 7 mph 1024.2mb 59f 51f
12:30 6 8 mph 1024.2mb 59f 51f
12:24 6 8 mph 1024.1mb 59f 51f
12:18 6 8 mph 1024mb 59f 51f
12:12 6 7 mph 1024mb 59f 51f
12:06 5 7 mph 1024mb 60f 51f
12:00 5 6 mph 1023.9mb 60f 51f
Sex 09/12 11:54 6 7 mph 1023.9mb 60f 51f
11:48 5 6 mph 1023.9mb 61f 51f
11:42 5 6 mph 1023.8mb 61f 51f
11:36 5 6 mph 1023.7mb 62f 51f
11:30 5 7 mph 1023.6mb 62f 51f
11:24 6
mph
1023.5mb 62f 51f
11:18 5 7 mph 1023.5mb 62f 52f
11:12 6 7 mph 1023.4mb 62f 52f
11:06 5 6 mph 1023.3mb 62f 52f
11:00 5 6 mph 1023.2mb 62f 52f
10:54 5 6 mph 1023.1mb 62f 53f
10:48 5 6 mph 1023mb 62f 53f
10:42 6 7 mph 1023.1mb 62f 53f
10:36 7 9 mph 1023mb 62f 53f
10:30 6 9 mph 1023mb 62f 54f
10:24 7 9 mph 1023mb 62f 54f
10:18 7 8 mph 1023mb 62f 54f
10:12 6 7 mph 1023mb 62f 54f
10:06 7 8 mph 1022.8mb 62f 54f
10:00 6 7 mph 1022.7mb 62f 54f
9:54 5 7 mph 1022.6mb 62f 55f
9:48 3 6 mph 1022.5mb 62f 55f
9:42 5 7 mph 1022.4mb 61f 55f
9:36 5 6 mph 1022.3mb 61f 55f
9:30 3 5 mph 1022.3mb 61f 56f
9:24 3 5 mph 1022.2mb 61f 56f
9:18 3 5 mph 1022.2mb 61f 56f
9:12 5 7 mph 1022.2mb 61f 56f
9:06 5 7 mph 1022.1mb 60f 57f
9:00 6 10 mph 1022.1mb 60f 57f
8:54 7 9 mph 1021.9mb 60f 57f
8:48 8 10 mph 1021.8mb 60f 58f
8:42 7 10 mph 1021.7mb 60f 58f
8:36 9 10 mph 1021.5mb 60f 58f
8:30 8 10 mph 1021.5mb 60f 58f
8:24 7 9 mph 1021.4mb 60f 58f
8:18 5 6 mph 1021.4mb 60f 58f
8:12 5
mph
1021.3mb 60f 58f
8:06 5 6 mph 1021.2mb 60f 58f
8:00 5
mph
1021.1mb 60f 58f
7:54 3 5 mph 1021.1mb 60f 58f
7:48 3
mph
1020.9mb 60f 58f
7:42 2 3 mph 1020.8mb 60f 58f
7:36 2 3 mph 1020.7mb 60f 59f
7:30 2 3 mph 1020.7mb 60f 59f
7:24 3 5 mph 1020.6mb 60f 58f
7:18 3 5 mph 1020.5mb 60f 59f
7:12 3 5 mph 1020.5mb 60f 59f
7:06 2 3 mph 1020.4mb 60f 60f
7:00 3
mph
1020.3mb 60f 60f
6:54 2
mph
1020.3mb 60f 60f
6:48 2
mph
1020.3mb 60f 60f
6:42  -  2 mph 1020.1mb 60f 61f
6:36 2 3 mph 1020mb 60f 61f
6:30 3 5 mph 1019.8mb 59f 61f
6:24 3 5 mph 1019.8mb 59f 62f
6:18 5
mph
1019.8mb 59f 62f
6:12 5
mph
1019.7mb 59f 62f
6:06 3 6 mph 1019.6mb 59f 62f
6:00 3 5 mph 1019.6mb 59f 62f
5:54 3 5 mph 1019.5mb 59f 62f
5:48 3 6 mph 1019.5mb 60f 62f
5:42 5 7 mph 1019.4mb 60f 62f
5:36 5 6 mph 1019.4mb 59f 63f
5:30 5 6 mph 1019.4mb 59f 63f
5:24 5 6 mph 1019.4mb 59f 64f
5:18 3 6 mph 1019.4mb 59f 64f
5:12 6
mph
1019.3mb 59f 62f
5:06 5 6 mph 1019.4mb 59f 63f
5:00 6 7 mph 1019.4mb 59f 62f
4:54 5 6 mph 1019.4mb 59f 62f
4:48 5
mph
1019.2mb 59f 62f
4:42 3 6 mph 1019.1mb 59f 62f
4:36 5 6 mph 1019.1mb 59f 62f
4:30 6 7 mph 1019.1mb 59f 64f
4:24 5 8 mph 1019.1mb 59f 64f
4:18 6 8 mph 1019mb 58f 63f
4:12 6 7 mph 1019mb 58f 63f
4:06 5 7 mph 1018.9mb 58f 62f
4:00 7 9 mph 1018.9mb 58f 63f
3:54 7 9 mph 1018.9mb 58f 64f
3:48 8 9 mph 1019mb 58f 64f
3:42 7 8 mph 1018.9mb 58f 64f
3:36 5 6 mph 1018.8mb 58f 64f
3:30 6 8 mph 1018.7mb 58f 64f
3:24 6 7 mph 1018.8mb 58f 64f
3:18 7 10 mph 1018.8mb 58f 63f
3:12 8 10 mph 1018.8mb 58f 63f
3:06 7 9 mph 1018.8mb 58f 63f
3:00 7 9 mph 1018.6mb 58f 63f
2:54 6 9 mph 1018.5mb 58f 64f
2:48 7 9 mph 1018.5mb 58f 64f
2:42 7 9 mph 1018.5mb 58f 63f
2:36 8 9 mph 1018.5mb 58f 64f
2:30 7 9 mph 1018.4mb 58f 63f
2:24 7 8 mph 1018.4mb 58f 63f
2:18 6 7 mph 1018.4mb 57f 64f
2:12 5 7 mph 1018.4mb 57f 64f
2:06 6 8 mph 1018.2mb 57f 62f
2:00 7 8 mph 1018.2mb 57f 63f
1:54 6 9 mph 1018.2mb 57f 63f
1:48 7 10 mph 1018.2mb 57f 63f
1:42 7 9 mph 1018.2mb 57f 62f
1:36 9 10 mph 1018.1mb 57f 62f
1:30 8 10 mph 1018.1mb 57f 63f
1:24 9 10 mph 1018.1mb 57f 62f
1:18 10 13 mph 1018mb 57f 62f
1:12 9 13 mph 1018mb 57f 62f
1:06 10 13 mph 1018.1mb 57f 62f
1:00 8 10 mph 1018.2mb 57f 62f
12:54 8 10 mph 1018.1mb 57f 62f
12:48 9 11 mph 1018mb 57f 63f
12:42 5 7 mph 1018.1mb 57f 64f
12:36 2 5 mph 1018mb 57f 63f
12:30 6 7 mph 1017.9mb 57f 63f
12:24 5 8 mph 1017.9mb 57f 63f
12:18 7 8 mph 1017.9mb 57f 62f
12:12 7 9 mph 1017.9mb 57f 62f
12:06 7 9 mph 1017.9mb 57f 62f
12:00 2
mph
1018mb 57f 66f
11:54 1 2 mph 1018mb 57f 64f
11:48 3 6 mph 1018mb 57f 62f
11:42 6 7 mph 1018.1mb 57f 61f
11:36 6 7 mph 1018.1mb 57f 61f
11:30 6 7 mph 1018.1mb 57f 61f
11:24 5 9 mph 1018mb 57f 61f
11:18 7 10 mph 1018mb 58f 61f
11:12 5 8 mph 1018mb 58f 61f
11:06 5 6 mph 1018mb 58f 61f